GW2194 Weather Reports


Display with metric or nautical units.
time (UTC)temp
F
wind
direction
speed
MPH
gust
MPH
rain 1hr
in
rain 24hr
in
rain mn
in
humidity
%
barometer
mb
20260905052901 67 325 0.0 0.0 0.00 0.00 0.00 97 1019.7
20260905052400 67 325 0.0 0.0 0.00 0.00 0.00 97 1019.9
20260905051900 67 49 0.0 0.0 0.00 0.00 0.00 97 1019.9
20260905051356 67 256 0.0 1.0 0.00 0.00 0.00 97 1019.6
20260905050853 67 342 0.0 1.0 0.00 0.00 0.00 97 1020.0
20260905050348 67 205 0.0 1.0 0.00 0.00 0.00 97 1020.1
20260905045849 67 193 0.0 0.0 0.00 0.00 0.00 97 1019.8
20260905045343 66 203 1.0 2.0 0.00 0.00 0.00 97 1020.1
20260905044839 66 224 0.0 0.0 0.00 0.00 0.00 97 1020.0
20260905044335 66 224 0.0 0.0 0.00 0.00 0.00 97 1020.1
20260905043833 66 206 0.0 2.0 0.00 0.00 0.00 97 1020.0
20260905043328 66 6 0.0 0.0 0.00 0.00 0.00 97 1020.3
20260905042823 66 37 0.0 0.0 0.00 0.00 0.00 97 1020.4
20260905042322 66 37 0.0 0.0 0.00 0.00 0.00 97 1020.8
20260905041817 66 69 0.0 0.0 0.00 0.00 0.00 97 1020.3
20260905041314 66 69 0.0 0.0 0.00 0.00 0.00 97 1020.6
20260905040809 66 69 0.0 0.0 0.00 0.00 0.00 97 1020.4
20260905040307 66 69 0.0 0.0 0.00 0.00 0.00 97 1020.7
20260905035802 67 315 0.0 1.0 0.00 0.38 0.38 97 1020.6
20260905035257 66 38 0.0 1.0 0.00 0.38 0.38 97 1020.5
20260905034754 67 311 1.0 1.0 0.00 0.38 0.38 97 1020.6
20260905034255 67 50 0.0 1.0 0.00 0.38 0.38 97 1020.5
20260905033753 66 55 0.0 0.0 0.00 0.38 0.38 97 1020.5
20260905033249 66 17 0.0 1.0 0.00 0.38 0.38 97 1020.3
20260905032748 66 333 0.0 2.0 0.00 0.38 0.38 97 1020.3
20260905032243 66 60 0.0 0.0 0.00 0.38 0.38 97 1019.9
20260905031738 67 60 0.0 0.0 0.00 0.38 0.38 97 1020.0
20260905031234 67 44 0.0 0.0 0.00 0.38 0.38 97 1020.1
20260905030729 67 40 0.0 1.0 0.00 0.38 0.38 97 1020.0
20260905030224 67 322 0.0 1.0 0.00 0.38 0.38 97 1020.0
20260905025719 67 308 0.0 1.0 0.00 0.38 0.38 97 1020.1
20260905025215 67 44 0.0 0.0 0.00 0.38 0.38 97 1019.8
20260905024710 67 325 0.0 2.0 0.00 0.38 0.38 97 1019.8
20260905024206 67 60 0.0 0.0 0.00 0.38 0.38 97 1019.9
20260905023701 67 82 0.0 1.0 0.00 0.38 0.38 97 1020.0
20260905023200 68 275 0.0 2.0 0.00 0.38 0.38 97 1020.0
20260905022659 68 237 0.0 0.0 0.00 0.38 0.38 97 1019.9
20260905022155 68 229 0.0 0.0 0.00 0.38 0.38 97 1020.0
20260905021655 68 229 0.0 0.0 0.00 0.38 0.38 97 1020.0
20260905021150 68 334 0.0 2.0 0.00 0.38 0.38 97 1020.0
20260905020645 68 342 1.0 1.0 0.00 0.38 0.38 97 1019.8
20260905020140 68 350 0.0 2.0 0.00 0.38 0.38 97 1019.8
20260905015638 68 209 0.0 4.0 0.00 0.38 0.38 97 1019.8
20260905015133 68 208 3.0 4.0 0.00 0.38 0.38 97 1019.8
20260905014627 68 44 0.0 0.0 0.00 0.38 0.38 97 1020.1
20260905014123 68 7 3.0 3.0 0.00 0.38 0.38 97 1020.0
20260905013619 68 310 0.0 1.0 0.00 0.38 0.38 97 1020.0
20260905013115 68 3 1.0 1.0 0.00 0.38 0.38 97 1019.9
20260905012615 68 5 0.0 0.0 0.00 0.38 0.38 97 1019.6
20260905012111 67 326 0.0 0.0 0.00 0.38 0.38 97 1019.5
20260905011607 68 6 0.0 1.0 0.00 0.38 0.38 97 1019.6
20260905011103 68 347 0.0 0.0 0.00 0.38 0.38 97 1019.5
20260905010602 68 50 0.0 0.0 0.00 0.38 0.38 97 1019.1
20260905010059 68 299 1.0 2.0 0.00 0.38 0.38 97 1019.2
20260905005554 68 0 0.0 1.0 0.00 0.38 0.38 97 1019.0
20260905005049 68 6 1.0 1.0 0.00 0.38 0.38 97 1019.0
20260905004544 68 234 0.0 2.0 0.00 0.38 0.38 97 1019.1
20260905004039 68 37 0.0 0.0 0.00 0.38 0.38 97 1019.1
20260905003535 68 22 0.0 0.0 0.00 0.38 0.38 97 1019.2
20260905003030 68 22 0.0 0.0 0.00 0.38 0.38 96 1019.1
20260905002525 69 50 1.0 2.0 0.00 0.38 0.38 96 1019.0
20260905002020 69 265 0.0 1.0 0.00 0.38 0.38 96 1018.9
20260905001515 69 20 1.0 2.0 0.00 0.38 0.38 96 1018.9
20260905001009 69 5 0.0 0.0 0.00 0.38 0.38 96 1019.2
20260905000504 69 44 0.0 0.0 0.00 0.38 0.38 96 1019.2
20260905000000 69 343 0.0 0.0 0.00 0.38 0.38 96 1018.9
20260904235455 69 343 0.0 0.0 0.00 0.38 0.38 95 1018.9
20260904234949 69 38 0.0 0.0 0.00 0.38 0.38 95 1018.7
20260904234449 70 50 0.0 0.0 0.00 0.38 0.38 95 1019.0
20260904233946 70 352 0.0 0.0 0.00 0.38 0.38 95 1018.9
20260904233441 70 339 0.0 0.0 0.00 0.38 0.38 94 1018.7
20260904232937 70 339 0.0 0.0 0.00 0.38 0.38 94 1018.7
20260904232433 71 25 0.0 0.0 0.00 0.38 0.38 94 1019.1
20260904231929 71 322 0.0 0.0 0.00 0.38 0.38 93 1019.1
20260904231424 71 257 0.0 0.0 0.00 0.38 0.38 93 1019.0
20260904230919 71 304 0.0 1.0 0.00 0.38 0.38 93 1018.9
20260904230417 71 225 1.0 1.0 0.00 0.38 0.38 92 1019.0
20260904225912 71 230 0.0 0.0 0.00 0.38 0.38 92 1019.3
20260904225411 72 309 0.0 0.0 0.00 0.38 0.38 92 1019.3
20260904224905 72 214 0.0 0.0 0.00 0.38 0.38 92 1019.4
20260904224401 72 242 0.0 0.0 0.00 0.38 0.38 92 1019.6
20260904223855 72 297 0.0 0.0 0.00 0.38 0.38 93 1019.6
20260904223354 71 309 0.0 0.0 0.00 0.38 0.38 93 1019.6
20260904222851 71 309 0.0 0.0 0.00 0.38 0.38 92 1019.5
20260904222351 71 311 1.0 2.0 0.00 0.38 0.38 91 1019.5
20260904221851 71 354 0.0 0.0 0.00 0.38 0.38 93 1019.6
20260904221346 71 322 0.0 0.0 0.00 0.38 0.38 93 1019.7
20260904220841 71 52 1.0 2.0 0.00 0.38 0.38 94 1019.9
20260904220340 71 320 0.0 0.0 0.00 0.38 0.38 95 1019.9
20260904215835 71 345 0.0 0.0 0.00 0.38 0.38 96 1020.3
20260904215330 71 55 0.0 0.0 0.00 0.38 0.38 96 1020.0
20260904214827 71 128 0.0 2.0 0.00 0.38 0.38 96 1020.1
20260904214322 70 177 0.0 0.0 0.00 0.38 0.38 96 1020.0
20260904213820 70 237 0.0 2.0 0.00 0.38 0.38 96 1019.9
20260904213315 70 29 0.0 0.0 0.00 0.38 0.38 96 1019.8
20260904212811 70 347 0.0 0.0 0.00 0.38 0.38 96 1019.8
20260904212306 70 14 0.0 1.0 0.00 0.38 0.38 96 1019.3
20260904211801 70 47 0.0 1.0 0.00 0.38 0.38 96 1019.3
20260904211255 70 142 0.0 0.0 0.00 0.38 0.38 96 1019.6
20260904210750 70 314 0.0 3.0 0.00 0.38 0.38 96 1019.6
20260904210244 70 337 3.0 3.0 0.00 0.38 0.38 96 1019.7
20260904205741 70 208 4.0 4.0 0.00 0.38 0.38 96 1019.6
20260904205237 70 60 0.0 3.0 0.00 0.38 0.38 95 1019.9
20260904204733 70 280 2.0 2.0 0.00 0.38 0.38 95 1020.7
20260904204229 70 230 0.0 0.0 0.02 0.38 0.38 95 1020.3
20260904203725 70 127 0.0 2.0 0.02 0.38 0.38 95 1021.0
20260904203221 70 45 3.0 3.0 0.00 0.38 0.38 95 1021.5
20260904202717 70 341 1.0 1.0 0.00 0.38 0.38 95 1021.3
20260904202213 70 53 0.0 2.0 0.09 0.38 0.38 95 1021.3
20260904201708 71 56 2.0 2.0 0.09 0.37 0.37 95 1021.3
20260904201208 71 129 0.0 0.0 0.07 0.36 0.36 95 1021.7
20260904200703 71 89 0.0 1.0 0.05 0.35 0.35 94 1021.6
20260904200157 71 154 0.0 10.0 0.02 0.35 0.35 94 1021.6
20260904195656 71 160 0.0 2.0 0.00 0.34 0.34 94 1021.4
20260904195150 71 208 0.0 1.0 0.00 0.34 0.34 93 1021.5
20260904194650 71 175 0.0 4.0 0.02 0.34 0.34 94 1021.8
20260904194144 71 105 2.0 3.0 0.00 0.34 0.34 93 1021.8
20260904193639 71 261 4.0 5.0 0.00 0.34 0.34 93 1022.2
20260904193136 71 304 2.0 3.0 0.00 0.34 0.34 92 1020.9
20260904192635 70 229 0.0 2.0 0.00 0.34 0.34 92 1021.1
20260904192131 71 3 0.0 1.0 0.00 0.34 0.34 92 1020.6
20260904191628 71 264 3.0 3.0 0.00 0.34 0.34 92 1021.0
20260904191124 71 241 2.0 3.0 0.02 0.34 0.34 91 1020.9
20260904190619 71 227 0.0 2.0 0.05 0.34 0.34 90 1021.0
20260904190115 72 204 3.0 5.0 0.38 0.34 0.34 88 1020.6
20260904185612 73 205 5.0 5.0 1.18 0.33 0.33 84 1021.2
20260904185106 76 222 2.0 4.0 0.83 0.27 0.27 79 1020.9
20260904184605 78 250 1.0 5.0 0.00 0.13 0.13 70 1021.1
20260904184101 79 297 5.0 15.0 0.00 0.13 0.13 66 1019.8
20260904183556 80 295 7.0 17.0 0.00 0.13 0.13 65 1019.3
20260904183051 81 353 8.0 14.0 0.00 0.13 0.13 66 1019.2
20260904182547 82 62 3.0 4.0 0.00 0.13 0.13 73 1019.4
20260904182046 83 66 2.0 5.0 0.00 0.13 0.13 71 1019.4
20260904181542 84 74 4.0 6.0 0.00 0.13 0.13 69 1019.6
20260904181036 84 45 5.0 8.0 0.00 0.13 0.13 67 1019.7
20260904180531 85 12 7.0 10.0 0.00 0.13 0.13 66 1019.4
20260904180026 85 9 5.0 8.0 0.00 0.13 0.13 65 1019.7
20260904175520 86 8 4.0 5.0 0.00 0.13 0.13 66 1019.8
20260904175019 86 339 7.0 8.0 0.00 0.13 0.13 63 1019.8
20260904174514 86 344 3.0 6.0 0.00 0.13 0.13 63 1019.7
20260904174011 87 339 9.0 9.0 0.00 0.13 0.13 63 1019.7
20260904173511 87 37 3.0 4.0 0.00 0.13 0.13 67 1019.6
20260904173007 87 25 4.0 5.0 0.00 0.13 0.13 62 1019.8
20260904172502 86 343 5.0 7.0 0.00 0.13 0.13 64 1019.8
20260904172001 86 7 6.0 8.0 0.00 0.13 0.13 64 1020.1
20260904171456 86 28 5.0 10.0 0.00 0.13 0.13 65 1020.0
20260904170952 86 342 6.0 8.0 0.00 0.13 0.13 64 1020.0
20260904170447 87 48 4.0 9.0 0.00 0.13 0.13 65 1020.1
20260904165943 86 306 5.0 6.0 0.00 0.13 0.13 65 1020.1
20260904165442 87 358 4.0 8.0 0.00 0.13 0.13 64 1020.3
20260904164941 85 297 0.0 3.0 0.00 0.13 0.13 65 1020.1
20260904164436 87 331 4.0 9.0 0.00 0.13 0.13 64 1020.6
20260904163932 86 266 3.0 4.0 0.00 0.13 0.13 67 1020.3
20260904163431 84 56 0.0 2.0 0.00 0.13 0.13 70 1020.5
20260904162926 85 358 2.0 6.0 0.00 0.13 0.13 68 1020.4
20260904162421 85 44 2.0 6.0 0.00 0.13 0.13 70 1020.6
20260904161911 85 44 3.0 5.0 0.00 0.13 0.13 72 1020.6
20260904161406 84 13 2.0 4.0 0.00 0.13 0.13 68 1020.5
20260904160902 85 339 0.0 6.0 0.00 0.13 0.13 67 1020.8
20260904160357 84 319 3.0 3.0 0.00 0.13 0.13 72 1020.7
20260904155852 84 12 2.0 5.0 0.00 0.13 0.13 67 1020.9
20260904155346 84 317 4.0 4.0 0.00 0.13 0.13 69 1020.9
20260904154844 85 301 2.0 4.0 0.00 0.13 0.13 67 1020.8
20260904154339 84 352 3.0 4.0 0.00 0.13 0.13 69 1021.0
20260904153835 85 4 5.0 7.0 0.00 0.13 0.13 68 1020.7
20260904153330 84 236 3.0 3.0 0.00 0.13 0.13 72 1020.8
20260904152826 85 256 3.0 6.0 0.00 0.13 0.13 68 1021.1
20260904152321 84 321 2.0 4.0 0.00 0.13 0.13 69 1020.8
20260904151816 84 248 2.0 4.0 0.00 0.13 0.13 71 1021.0
20260904151315 83 216 4.0 4.0 0.00 0.13 0.13 73 1020.7
20260904150811 83 225 4.0 6.0 0.00 0.13 0.13 71 1020.8
20260904150306 81 279 0.0 1.0 0.00 0.13 0.13 79 1020.8
20260904145804 82 237 4.0 5.0 0.00 0.13 0.13 76 1020.8
20260904145300 81 132 5.0 5.0 0.00 0.13 0.13 76 1020.9
20260904144755 80 244 0.0 1.0 0.00 0.13 0.13 79 1020.9
20260904144251 80 129 0.0 1.0 0.00 0.13 0.13 79 1020.9
20260904143747 79 246 0.0 1.0 0.00 0.13 0.13 80 1020.9
20260904143243 78 296 0.0 1.0 0.00 0.13 0.13 82 1021.0
20260904142739 77 45 2.0 2.0 0.00 0.13 0.13 84 1021.2
20260904142235 77 42 0.0 3.0 0.00 0.13 0.13 84 1020.9
20260904141735 77 54 1.0 3.0 0.00 0.13 0.13 81 1021.1
20260904141230 78 62 0.0 2.0 0.00 0.13 0.13 81 1021.1
20260904140726 77 117 0.0 0.0 0.00 0.13 0.13 80 1021.1
20260904140221 77 80 1.0 1.0 0.00 0.13 0.13 80 1021.2
20260904135719 75 32 0.0 0.0 0.00 0.13 0.13 86 1021.1
20260904135215 75 72 0.0 2.0 0.00 0.13 0.13 85 1021.4
20260904134711 75 60 1.0 2.0 0.00 0.13 0.13 85 1021.2
20260904134210 74 310 0.0 1.0 0.00 0.13 0.13 87 1021.2
20260904133705 73 62 0.0 2.0 0.00 0.13 0.13 88 1021.5
20260904133202 76 70 2.0 3.0 0.00 0.13 0.13 84 1021.6
20260904132700 74 279 1.0 1.0 0.00 0.13 0.13 89 1021.5
20260904132156 72 53 0.0 2.0 0.00 0.13 0.13 92 1021.4
20260904131655 71 60 2.0 3.0 0.00 0.13 0.13 94 1021.4
20260904131150 71 45 2.0 3.0 0.00 0.13 0.13 96 1021.4
20260904130645 71 33 2.0 3.0 0.00 0.13 0.13 97 1021.5
20260904130145 70 54 2.0 3.0 0.00 0.13 0.13 97 1021.5
20260904125641 70 45 2.0 3.0 0.00 0.13 0.13 97 1021.5
20260904125136 70 47 2.0 3.0 0.00 0.13 0.13 97 1021.5
20260904124631 70 34 2.0 2.0 0.00 0.13 0.13 97 1021.7
20260904124127 70 49 0.0 1.0 0.00 0.13 0.13 97 1021.7
20260904123627 69 341 0.0 2.0 0.00 0.13 0.13 97 1021.7
20260904123123 68 337 0.0 2.0 0.00 0.13 0.13 97 1021.8
20260904122617 68 22 0.0 1.0 0.00 0.13 0.13 97 1021.7
20260904122112 68 335 0.0 1.0 0.00 0.13 0.13 97 1021.6
20260904121607 68 315 0.0 1.0 0.00 0.13 0.13 97 1021.7
20260904121103 68 320 0.0 1.0 0.00 0.13 0.13 97 1021.5
20260904120559 68 316 0.0 1.0 0.00 0.13 0.13 97 1021.4
20260904120055 68 28 2.0 2.0 0.00 0.13 0.13 97 1021.7
20260904115549 68 355 0.0 1.0 0.00 0.13 0.13 97 1021.5
20260904115044 68 345 2.0 3.0 0.00 0.13 0.13 97 1021.7
20260904114539 68 351 2.0 2.0 0.00 0.13 0.13 97 1021.5
20260904114038 68 357 1.0 1.0 0.00 0.13 0.13 97 1021.1
20260904113533 68 337 1.0 1.0 0.00 0.13 0.13 97 1021.4
20260904113033 68 214 2.0 2.0 0.00 0.13 0.13 97 1021.4
20260904112528 67 44 0.0 1.0 0.00 0.13 0.13 97 1021.3
20260904112024 67 49 0.0 2.0 0.00 0.13 0.13 97 1021.5
20260904111519 68 245 1.0 2.0 0.00 0.13 0.13 97 1021.3
20260904111014 68 246 0.0 2.0 0.00 0.13 0.13 97 1021.4
20260904110509 68 224 2.0 3.0 0.00 0.13 0.13 97 1021.5
20260904110004 68 272 2.0 2.0 0.00 0.13 0.13 97 1021.6
20260904105458 68 311 1.0 2.0 0.00 0.13 0.13 97 1021.7
20260904104953 68 305 0.0 0.0 0.00 0.13 0.13 97 1021.6
20260904104448 68 227 2.0 3.0 0.00 0.13 0.13 97 1021.7
20260904103944 68 314 0.0 1.0 0.00 0.13 0.13 97 1021.9
20260904103440 68 55 0.0 1.0 0.00 0.13 0.13 97 1021.7
20260904102930 68 324 1.0 2.0 0.00 0.13 0.13 97 1021.7
20260904102426 68 357 2.0 3.0 0.00 0.13 0.13 97 1021.5
20260904101921 67 346 0.0 2.0 0.00 0.13 0.13 97 1021.7
20260904101418 67 0 0.0 2.0 0.00 0.13 0.13 97 1021.5
20260904100913 67 293 0.0 1.0 0.00 0.13 0.13 97 1021.4
20260904100408 67 345 0.0 1.0 0.00 0.13 0.13 97 1021.7
20260904095903 67 330 0.0 1.0 0.00 0.13 0.13 97 1021.8
20260904095357 67 44 0.0 2.0 0.00 0.13 0.13 97 1021.6
20260904094853 67 219 1.0 3.0 0.00 0.13 0.13 97 1021.6
20260904094348 67 293 0.0 2.0 0.00 0.13 0.13 97 1021.6
20260904093844 67 353 2.0 2.0 0.00 0.13 0.13 97 1021.5
20260904093344 67 2 4.0 7.0 0.00 0.13 0.13 97 1021.7
20260904092839 67 344 7.0 9.0 0.00 0.13 0.13 97 1021.5
20260904092336 67 21 4.0 6.0 0.00 0.13 0.13 97 1021.6
20260904091832 67 20 3.0 7.0 0.00 0.13 0.13 97 1021.4
20260904091327 67 24 8.0 8.0 0.00 0.13 0.13 97 1021.6
20260904090822 66 3 5.0 5.0 0.00 0.13 0.13 97 1021.3
20260904090318 66 311 0.0 2.0 0.00 0.13 0.13 97 1021.0
20260904085813 66 279 0.0 1.0 0.00 0.13 0.13 97 1021.0
20260904085308 66 257 0.0 1.0 0.00 0.13 0.13 97 1021.3
20260904084802 66 290 0.0 1.0 0.00 0.13 0.13 97 1021.1
20260904084258 66 309 0.0 1.0 0.00 0.13 0.13 97 1021.2
20260904083754 66 334 0.0 1.0 0.00 0.13 0.13 97 1021.1
20260904083250 66 326 0.0 1.0 0.00 0.13 0.13 97 1021.0
20260904082745 66 315 0.0 2.0 0.00 0.13 0.13 97 1020.8
20260904082240 66 346 1.0 2.0 0.00 0.13 0.13 97 1020.8
20260904081735 66 357 1.0 2.0 0.00 0.13 0.13 97 1020.8
20260904081231 66 320 0.0 2.0 0.00 0.13 0.13 97 1020.9
20260904080726 66 335 1.0 1.0 0.00 0.13 0.13 97 1020.8
20260904080222 66 319 0.0 2.0 0.00 0.13 0.13 97 1020.9
20260904075718 66 325 0.0 1.0 0.00 0.13 0.13 97 1020.6
20260904075213 66 298 2.0 2.0 0.00 0.13 0.13 97 1020.7
20260904074712 66 332 1.0 1.0 0.00 0.13 0.13 97 1020.8
20260904074206 66 13 0.0 2.0 0.00 0.13 0.13 97 1020.8
20260904073702 66 324 1.0 2.0 0.00 0.13 0.13 97 1020.4
20260904073158 66 339 2.0 2.0 0.00 0.13 0.13 97 1020.4
20260904072653 66 334 2.0 2.0 0.02 0.13 0.13 97 1020.6
20260904072148 66 345 1.0 2.0 0.00 0.13 0.13 97 1020.5
20260904071644 66 336 0.0 2.0 0.00 0.13 0.13 97 1020.4
20260904071139 66 331 1.0 2.0 0.00 0.13 0.13 97 1020.4
20260904070637 67 324 0.0 1.0 0.00 0.13 0.13 97 1020.4
20260904070132 67 322 1.0 1.0 0.00 0.13 0.13 97 1020.5
20260904065632 67 302 0.0 1.0 0.00 0.13 0.13 97 1020.7
20260904065129 67 326 1.0 2.0 0.00 0.13 0.13 97 1020.9
20260904064624 67 312 1.0 2.0 0.00 0.13 0.13 97 1020.8
20260904064119 67 328 0.0 1.0 0.00 0.13 0.13 97 1020.6
20260904063615 67 315 0.0 1.0 0.00 0.13 0.13 97 1020.7
20260904063110 67 322 0.0 1.0 0.00 0.13 0.13 97 1020.6
20260904062607 67 306 0.0 1.0 0.00 0.13 0.13 97 1020.5
20260904062102 67 1 1.0 2.0 0.00 0.13 0.13 97 1020.8
20260904061557 67 339 2.0 2.0 0.00 0.13 0.13 97 1020.6
20260904061054 67 339 2.0 3.0 0.00 0.13 0.13 97 1020.5
20260904060549 67 311 0.0 2.0 0.00 0.13 0.13 97 1020.6
20260904060045 67 315 0.0 1.0 0.00 0.13 0.13 97 1020.6
20260904055540 68 331 0.0 1.0 0.00 0.13 0.13 97 1020.6
20260904055035 68 310 0.0 1.0 0.00 0.13 0.13 97 1020.9
20260904054531 68 274 1.0 1.0 0.00 0.13 0.13 97 1021.0
20260904054027 68 301 1.0 2.0 0.00 0.13 0.13 97 1021.3
20260904053526 68 309 0.0 2.0 0.00 0.13 0.13 97 1021.3
20260904053022 68 321 0.0 1.0 0.00 0.13 0.13 97 1021.7